Location: LDNL
(36.4545°S, 141.6685°E)
Time: 11:35:26
(UTC+10:00)

Explorer 7 - Pass Details

Date: 13 August 2022
Orbit: 482 x 668 km, 50.3° (Epoch: 26 September)

Event Time Altitude Azimuth Distance (km) Brightness Sun altitude
Rises 22:43:01 0° 228° (SW) 2,942 - -56.3°
Reaches altitude 10° 22:46:03 10° 209° (SSW) 1,996 - -56.8°
Maximum altitude 22:49:14 18° 165° (SSE) 1,485 - -57.3°
Drops below altitude 10° 22:52:18 10° 120° (ESE) 1,906 - -57.8°
Sets 22:55:06 0° 100° (E) 2,759 - -58.3°
